Stations météo

réclame
Mon MeteoGroup
Jersey Airport, Grande-Bretagne (3895): Température de l'air & dewpoint: 19.02.2018 09:00:00 - 25.02.2018 09:00:00 (GMT)Jersey Airport, Grande-Bretagne (3895): Température de l'air -20cm & Température de l'air -100cm: 19.02.2018 09:00:00 - 25.02.2018 09:00:00 (GMT)Jersey Airport, Grande-Bretagne (3895): Vitesse du vent & gusts: 19.02.2018 09:00:00 - 25.02.2018 09:00:00 (GMT)Jersey Airport, Grande-Bretagne (3895): Direction du vent: 19.02.2018 09:00:00 - 25.02.2018 09:00:00 (GMT)Jersey Airport, Grande-Bretagne (3895): reduced air pressure: 19.02.2018 09:00:00 - 25.02.2018 09:00:00 (GMT)Jersey Airport, Grande-Bretagne (3895): visibility: 19.02.2018 09:00:00 - 25.02.2018 09:00:00 (GMT)Jersey Airport, Grande-Bretagne (3895): Ensoleillement: 19.02.2018 09:00:00 - 25.02.2018 09:00:00 (GMT)Jersey Airport, Grande-Bretagne (3895): Quantités de précipitations: 19.02.2018 09:00:00 - 25.02.2018 09:00:00 (GMT)
Date & Time tt [°C] td [°C] tt -20cm [°C] tt -100cm [°C] ff [km/h] ff [knt] fx [km/h] fx [knt] dd ppp [hPa] vv [km] sd [min] rr [mm]
25.02.2018 09:00:00 1,7 -3,3 5,2 8,0 37 20 - - E 1021,8 10 60 0,0
25.02.2018 08:00:00 0,8 -3,2 - - 34 18 - - E 1021,5 10 24 0,0
25.02.2018 07:00:00 0,7 -3,1 - - 28 15 - - E 1021,0 10 0 0,0
25.02.2018 06:00:00 1,1 -2,9 - - 26 14 - - E 1020,7 10 0 0,0
25.02.2018 05:00:00 1,3 -3,6 - - 28 15 - - E 1020,2 10 0 0,0
25.02.2018 04:00:00 1,9 -4,0 - - 29 16 - - E 1020,1 10 0 0,0
25.02.2018 03:00:00 2,3 -4,0 - - 28 15 - - E 1019,9 10 0 0,0
25.02.2018 02:00:00 2,5 -3,0 - - 26 14 - - E 1019,6 10 0 0,0
25.02.2018 01:00:00 2,3 -3,6 - - 26 14 - - E 1019,5 10 0 0,0
25.02.2018 00:00:00 2,8 -3,7 - - 28 15 - - E 1019,3 10 - 0,0
24.02.2018 23:00:00 2,7 -3,8 - - 26 14 - - E 1019,0 10 0 0,0
24.02.2018 22:00:00 2,5 -3,8 - - 28 15 - - E 1018,7 10 0 0,0
24.02.2018 21:00:00 2,4 -2,7 - - 26 14 - - E 1018,5 10 0 0,0
24.02.2018 20:00:00 2,6 -1,7 - - 29 16 - - E 1018,1 9 0 0,0
24.02.2018 19:00:00 2,7 -1,2 - - 31 17 48 26 E 1017,5 9 0 0,0
24.02.2018 18:00:00 2,7 -1,0 - - 31 17 46 25 E 1016,7 10 0 0,0
24.02.2018 17:00:00 3,4 -0,8 - - 29 16 46 25 E 1016,2 10 36 0,0
24.02.2018 16:00:00 4,1 -0,2 - - 31 17 48 26 ENE 1015,9 10 42 0,0
24.02.2018 15:00:00 4,5 -0,8 - - 31 17 - - ENE 1015,8 10 60 0,0
24.02.2018 14:00:00 4,8 -2,1 - - 28 15 46 25 ENE 1015,8 10 60 0,0
24.02.2018 13:00:00 5,0 -2,0 - - 29 16 46 25 ENE 1016,1 10 60 0,0
24.02.2018 12:00:00 3,7 -3,4 - - 26 14 - - ENE 1016,6 10 60 0,0
24.02.2018 11:00:00 2,8 -4,2 - - 28 15 - - E 1016,9 10 60 0,0
24.02.2018 10:00:00 2,4 -4,8 - - 21 11 - - E 1016,9 10 60 0,0
24.02.2018 09:00:00 1,4 -4,7 5,7 8,2 21 11 - - E 1016,7 10 60 0,0
24.02.2018 08:00:00 0,1 -5,2 - - 21 11 - - E 1016,4 10 18 0,0
24.02.2018 07:00:00 -0,8 -5,9 - - 22 12 - - E 1016,1 10 0 0,0
24.02.2018 06:00:00 -0,1 -5,5 - - 22 12 - - E 1015,6 10 0 0,0
24.02.2018 05:00:00 -0,1 -5,2 - - 22 12 - - E 1015,5 10 0 0,0
24.02.2018 04:00:00 0,3 -5,0 - - 24 13 - - E 1015,6 10 0 0,0
24.02.2018 03:00:00 -0,1 -4,4 - - 18 10 - - E 1015,8 10 0 0,0
24.02.2018 02:00:00 -0,6 -4,1 - - 15 8 - - E 1016,0 10 0 0,0
24.02.2018 01:00:00 -0,4 -4,1 - - 18 10 - - E 1015,7 10 0 0,0
24.02.2018 00:00:00 0,5 -4,3 - - 28 15 - - ESE 1015,6 10 - 0,0
23.02.2018 23:00:00 0,6 -4,2 - - 34 18 48 26 ESE 1015,4 10 0 0,0
23.02.2018 22:00:00 1,1 -4,2 - - 41 22 52 28 ESE 1015,3 10 0 0,0
23.02.2018 21:00:00 1,4 -3,6 - - 41 22 50 27 E 1015,2 10 0 0,0
23.02.2018 20:00:00 1,4 -3,1 - - 39 21 46 25 E 1015,1 10 0 0,0
23.02.2018 19:00:00 1,6 -3,1 - - 34 18 - - E 1015,2 10 0 0,0
23.02.2018 18:00:00 1,5 -3,3 - - 28 15 - - E 1015,1 10 18 0,0
23.02.2018 17:00:00 2,3 -3,4 - - 29 16 - - E 1015,1 10 60 0,0
23.02.2018 16:00:00 3,3 -3,2 - - 26 14 - - E 1015,3 10 60 0,0
23.02.2018 15:00:00 3,6 -3,7 - - 29 16 46 25 ENE 1015,5 10 60 0,0
23.02.2018 14:00:00 4,0 -3,8 - - 31 17 - - ENE 1015,9 10 60 0,0
23.02.2018 13:00:00 3,4 -4,6 - - 28 15 - - E 1016,7 10 60 0,0
23.02.2018 12:00:00 3,6 -3,3 - - 29 16 - - ENE 1017,3 10 60 0,0
23.02.2018 11:00:00 3,1 -2,2 - - 26 14 - - E 1017,6 10 60 0,0
23.02.2018 10:00:00 2,3 -2,5 - - 28 15 - - E 1018,0 10 54 0,0
23.02.2018 09:00:00 1,6 -2,3 6,2 8,4 22 12 - - E 1018,2 10 60 0,0
23.02.2018 08:00:00 -0,1 -2,3 - - 16 9 - - E 1018,1 10 6 0,0
23.02.2018 07:00:00 -1,5 -3,8 - - 13 7 - - E 1018,3 10 0 0,0
23.02.2018 06:00:00 -1,3 -4,0 - - 13 7 - - E 1018,2 10 0 0,0
23.02.2018 05:00:00 -1,0 -4,6 - - 11 6 - - E 1018,3 10 0 0,0
23.02.2018 04:00:00 -0,2 -4,0 - - 15 8 - - E 1018,4 10 0 0,0
23.02.2018 03:00:00 0,7 -4,2 - - 18 10 - - E 1018,7 10 0 0,0
23.02.2018 02:00:00 0,9 -3,9 - - 22 12 - - E 1018,8 10 0 0,0
23.02.2018 01:00:00 0,5 -4,1 - - 22 12 - - E 1019,1 10 0 0,0
23.02.2018 00:00:00 1,5 -4,3 - - 21 11 - - E 1019,4 10 - 0,0
22.02.2018 23:00:00 1,6 -4,0 - - 22 12 - - E 1019,7 10 0 0,0
22.02.2018 22:00:00 2,1 -3,8 - - 29 16 - - E 1019,7 10 0 0,0
22.02.2018 21:00:00 2,3 -2,5 - - 28 15 - - E 1019,6 10 0 0,0
22.02.2018 20:00:00 2,7 -1,7 - - 18 10 - - E 1019,5 10 0 0,0
22.02.2018 19:00:00 3,0 -1,1 - - 21 11 - - ENE 1019,5 10 0 0,0
22.02.2018 18:00:00 3,0 -1,5 - - 18 10 - - ENE 1019,3 10 18 0,0
22.02.2018 17:00:00 4,3 -1,4 - - 16 9 - - ENE 1019,2 10 60 0,0
22.02.2018 16:00:00 5,1 -0,7 - - 22 12 - - ENE 1019,1 10 60 0,0
22.02.2018 15:00:00 5,2 -1,6 - - 26 14 - - ENE 1019,5 10 60 0,0
22.02.2018 14:00:00 5,9 -0,7 - - 26 14 - - ENE 1019,9 10 60 0,0
22.02.2018 13:00:00 5,7 -0,6 - - 28 15 - - ENE 1020,5 10 60 0,0
22.02.2018 12:00:00 5,2 -1,1 - - 22 12 - - ENE 1021,0 10 30 0,0
22.02.2018 11:00:00 4,7 -1,0 - - 24 13 - - ENE 1021,3 9 36 0,0
22.02.2018 10:00:00 4,1 -0,3 - - 26 14 - - E 1021,3 7 18 0,0
22.02.2018 09:00:00 3,8 0,2 6,9 8,4 22 12 - - ENE 1021,4 10 12 0,0
22.02.2018 08:00:00 2,0 0,3 - - 11 6 - - E 1021,5 6 0 0,0
22.02.2018 07:00:00 -0,1 -1,6 - - 13 7 - - E 1021,4 4,0 0 0,0
22.02.2018 06:00:00 0,3 -1,4 - - 11 6 - - E 1021,4 9 0 0,0
22.02.2018 05:00:00 1,8 -0,6 - - 18 10 - - E 1021,3 9 0 0,0
22.02.2018 04:00:00 2,9 -0,4 - - 21 11 - - E 1021,4 10 0 0,0
22.02.2018 03:00:00 3,0 -0,4 - - 21 11 - - E 1021,6 10 0 0,0
22.02.2018 02:00:00 3,4 -0,6 - - 21 11 - - E 1022,2 10 0 0,0
22.02.2018 01:00:00 4,0 -0,3 - - 15 8 - - ENE 1022,7 10 0 0,0
22.02.2018 00:00:00 4,0 -0,7 - - 18 10 - - ENE 1023,1 10 - 0,0
21.02.2018 23:00:00 4,1 -0,3 - - 22 12 - - E 1023,2 10 0 0,0
21.02.2018 22:00:00 4,7 0,5 - - 21 11 - - ENE 1023,7 10 0 0,0
21.02.2018 21:00:00 4,9 0,5 - - 24 13 - - NE 1023,9 - 0 0,0
21.02.2018 20:00:00 5,0 0,3 - - 21 11 - - NE 1023,9 - 0 0,0
21.02.2018 19:00:00 5,3 0,1 - - 22 12 - - NE 1023,9 - 0 0,0
21.02.2018 18:00:00 5,5 0,2 - - 16 9 - - NE 1023,6 10 0 0,0
21.02.2018 17:00:00 6,0 0,6 - - 15 8 - - ENE 1023,5 10 6 0,0
21.02.2018 16:00:00 6,4 1,1 - - 18 10 - - ENE 1023,5 10 24 0,0
21.02.2018 15:00:00 6,9 1,4 - - 16 9 - - NE 1023,7 10 36 0,0
21.02.2018 14:00:00 7,2 0,5 - - 26 14 - - ENE 1024,3 10 60 0,0
21.02.2018 13:00:00 7,1 0,5 - - 24 13 - - ENE 1024,9 10 60 0,0
21.02.2018 12:00:00 6,6 -0,5 - - 22 12 - - ENE 1025,3 10 54 0,0
21.02.2018 11:00:00 6,3 -0,3 - - 22 12 - - NE 1025,7 10 60 0,0
21.02.2018 10:00:00 6,1 0,3 - - 22 12 - - ENE 1025,5 8 36 0,0
21.02.2018 09:00:00 5,6 2,3 7,2 8,2 18 10 - - E 1025,2 8 0 0,0
21.02.2018 08:00:00 5,4 1,9 - - 18 10 - - ENE 1024,9 10 0 0,0
21.02.2018 07:00:00 5,9 2,3 - - 16 9 - - NE 1024,5 10 0 0,0
21.02.2018 06:00:00 5,8 2,8 - - 21 11 - - ENE 1024,3 10 0 0,0
21.02.2018 05:00:00 5,8 3,0 - - 22 12 - - ENE 1023,8 10 0 0,0
21.02.2018 04:00:00 6,5 3,7 - - 24 13 - - NE 1023,4 10 0 0,0
21.02.2018 03:00:00 6,5 4,4 - - 24 13 48 26 NE 1023,6 10 0 0,4
21.02.2018 02:00:00 7,5 3,5 - - 28 15 48 26 NNE 1023,5 10 0 0,0
21.02.2018 01:00:00 7,6 3,9 - - 29 16 50 27 NNE 1023,2 10 0 0,0
21.02.2018 00:00:00 7,8 3,6 - - 26 14 50 27 N 1023,1 10 - 0,0
20.02.2018 23:00:00 7,9 3,5 - - 31 17 55 30 N 1023,3 10 0 0,0
20.02.2018 22:00:00 8,2 3,3 - - 29 16 50 27 N 1023,2 10 0 0,0
20.02.2018 21:00:00 8,2 3,0 - - 28 15 48 26 N 1023,1 10 0 0,0
20.02.2018 20:00:00 7,8 2,9 - - 26 14 - - N 1023,3 10 0 0,0
20.02.2018 19:00:00 7,7 3,8 - - 21 11 - - N 1023,1 10 0 0,0
20.02.2018 18:00:00 7,8 4,0 - - 21 11 - - N 1022,8 10 12 0,0
20.02.2018 17:00:00 8,5 4,0 - - 21 11 48 26 N 1022,5 10 54 0,0
20.02.2018 16:00:00 9,2 3,5 - - 24 13 50 27 N 1022,0 10 60 0,0
20.02.2018 15:00:00 9,4 4,0 - - 26 14 54 29 N 1021,7 10 60 0,0
20.02.2018 14:00:00 9,4 4,6 - - 24 13 48 26 N 1021,8 10 60 0,0
20.02.2018 13:00:00 9,1 4,4 - - 26 14 50 27 N 1022,2 10 24 0,0
20.02.2018 12:00:00 9,1 4,8 - - 29 16 48 26 N 1022,1 10 18 0,0
20.02.2018 11:00:00 8,7 6,3 - - 22 12 50 27 N 1022,0 10 0 0,0
20.02.2018 10:00:00 8,9 7,6 - - 21 11 - - NNW 1021,6 10 0 0,0
20.02.2018 09:00:00 8,9 7,8 7,2 8,0 21 11 - - N 1021,0 10 0 0,0
20.02.2018 08:00:00 8,9 8,0 - - 21 11 - - NNW 1020,8 10 0 0,0
20.02.2018 07:00:00 8,4 7,2 - - 18 10 - - NNW 1020,1 10 0 0,0
20.02.2018 06:00:00 8,5 7,0 - - 22 12 48 26 NNW 1019,7 10 0 0,0
20.02.2018 05:00:00 8,5 7,2 - - 21 11 - - NNW 1019,5 10 0 0,0
20.02.2018 04:00:00 8,8 7,6 - - 21 11 - - NW 1019,4 10 0 0,0
20.02.2018 03:00:00 9,1 7,6 - - 21 11 - - NNW 1019,3 10 0 0,0
20.02.2018 02:00:00 9,2 7,6 - - 21 11 - - NNW 1019,2 10 0 0,0
20.02.2018 01:00:00 9,2 7,6 - - 18 10 - - NNW 1019,1 10 0 0,0
20.02.2018 00:00:00 9,3 7,8 - - 18 10 - - NNW 1019,1 10 - 0,0
19.02.2018 23:00:00 9,2 7,8 - - 18 10 - - NNW 1018,9 10 0 0,0
19.02.2018 22:00:00 9,1 7,9 - - 18 10 - - NW 1018,8 10 0 0,0
19.02.2018 21:00:00 9,0 7,8 - - 16 9 - - NNW 1018,8 10 0 0,0
19.02.2018 20:00:00 9,3 8,4 - - 18 10 - - NNW 1019,0 10 0 0,0
19.02.2018 19:00:00 9,3 8,7 - - 18 10 - - NW 1018,8 10 0 0,0
19.02.2018 18:00:00 9,3 9,0 - - 21 11 - - NW 1018,7 7 0 0,0
19.02.2018 17:00:00 9,3 9,1 - - 21 11 - - WNW 1018,5 9 0 0,0
19.02.2018 16:00:00 9,4 9,3 - - 18 10 - - WNW 1018,4 7 0 0,0
19.02.2018 15:00:00 9,9 9,8 - - 16 9 - - WNW 1018,4 4,0 0 0,0
19.02.2018 14:00:00 10,0 9,9 - - 18 10 - - WNW 1018,6 2,0 0 0,0
19.02.2018 13:00:00 9,9 9,8 - - 16 9 - - WNW 1018,8 0,9 0 0,0
19.02.2018 12:00:00 10,3 10,2 - - 11 6 - - NW 1019,0 9 0 0,0
19.02.2018 11:00:00 9,6 9,5 - - 16 9 - - NW 1019,0 0,3 0 0,0
19.02.2018 10:00:00 9,1 9,0 - - 11 6 - - WNW 1019,0 0,1 0 0,2
19.02.2018 09:00:00 8,6 8,5 6,7 8,0 9 5 - - WNW 1019,0 0,3 0 0,2

tt = Température de l'air
td = dewpoint
tt -20cm = Température de l'air -20cm
tt -100cm = Température de l'air -100cm
ff = Vitesse du vent
fx = gusts
dd = Direction du vent
ppp = reduced air pressure
vv = visibility
sd = Ensoleillement
rr = Quantités de précipitations

stations d'obs. à proximité